#timestamp,LO_Frequency,Hit 
1501095615.4,286047008.1,N
1501095635.2,286047006.8,N
1501095655.1,286047006.6,N
1501095656.0,286047006.6,N
1501095675.8,286047005.5,N
1501095695.6,286047001.4,N
1501095715.5,286046999.0,N
1501095735.3,286046995.8,N
1501095755.1,286046995.6,N
1501095775.9,286047002.2,N
1501095795.7,286047002.9,N
1501095815.5,286046994.9,N
1501095835.3,286046993.9,N
1501095855.2,286046992.5,N
1501095875.0,286046992.1,N
1501095875.9,286046992.1,N
1501095895.7,286046995.5,N
1501095915.6,286046993.1,N
1501095935.4,286046994.5,N
1501095955.2,286046996.7,N
1501095975.1,286047000.9,N
1501095976.0,286047000.9,N
1501095995.8,286047000.6,N
1501096015.6,286046997.1,N
1501096035.5,286046998.6,N
1501096055.3,286047001.2,N
1501096075.1,286046999.7,N
1501096095.8,286047002.4,N
1501096115.7,286047001.3,N
1501096135.5,286046998.3,N
1501096155.3,286046997.9,N
1501096175.2,286046993.4,N
1501096195.9,286046993.4,N
1501096215.7,286046996.4,N
1501096235.6,286046994.5,N
1501096255.4,286046992.3,N
1501096275.2,286046996.0,N
1501096295.0,286047002.7,N
1501096296.0,286047002.7,N
1501096315.8,286047001.8,N
1501096335.6,286047007.7,N
1501096355.4,286047019.9,N
1501096375.3,286047021.8,N
1501096395.1,286047019.5,N
1501096415.8,286047018.5,N
1501096435.7,286047021.2,N
1501096455.5,286047020.5,N
1501096475.3,286047020.0,N
1501096495.2,286047015.3,N
1501096515.9,286047013.3,N
1501096535.7,286047013.0,N
1501096555.5,286047009.6,N
1501096575.4,286047010.7,N
1501096595.2,286047012.4,N
1501096615.0,286047013.8,N
1501096615.9,286047013.8,N
1501096635.8,286047013.5,N
1501096655.6,286047012.1,N
1501096675.4,286047010.9,N
1501096695.3,286047010.0,N
1501096715.1,286047006.8,N
1501096716.0,286047006.8,N
1501096735.8,286047004.7,N
1501096755.7,286047006.0,N
1501096775.5,286047005.7,N
1501096795.3,286047006.7,N
1501096815.2,286047012.3,N
1501096835.9,286047011.0,N
1501096855.7,286047011.9,N
1501096875.5,286047011.0,N
1501096895.4,286047016.5,N
1501096915.2,286047013.6,N
1501096935.0,286047006.2,N
1501096935.9,286047006.2,N
1501096955.8,286047012.0,N
1501096975.6,286047015.5,N
1501096995.4,286047015.5,N
1501097015.3,286047009.9,N
1501097035.1,286047013.9,N
1501097036.0,286047013.9,N
1501097055.8,286047012.5,N
1501097075.7,286047012.2,N
1501097095.5,286047008.3,N
1501097115.3,286047005.6,N
1501097135.1,286047000.4,N
1501097155.9,286047005.3,N
1501097175.7,286047005.1,N
1501097195.5,286047010.4,N
1501097215.4,286047011.8,N
1501097235.2,286047010.3,N
1501097255.0,286047007.2,N
1501097255.9,286047007.2,N
1501097275.8,286047006.0,N
1501097295.6,286047003.9,N
1501097315.4,286047006.2,N
1501097335.3,286047006.1,N
1501097355.1,286047004.1,N
1501097356.0,286047004.1,N
1501097375.8,286046998.9,N
1501097395.6,286046999.2,N
1501097415.5,286047002.5,N
1501097435.3,286047001.6,N
1501097455.1,286047000.3,N
1501097475.9,286047002.1,N
1501097495.7,286046994.0,N
1501097515.5,286046993.2,N
1501097535.4,286046995.2,N
1501097555.2,286047003.3,N
1501097575.0,286047009.0,N
1501097575.9,286047009.0,N
1501097595.8,286047004.6,N
1501097615.6,286047007.6,N
1501097635.4,286047005.5,N
1501097655.2,286046999.8,N
1501097675.1,286046995.0,N
1501097676.0,286046995.0,N
1501097695.8,286046995.9,N
1501097715.6,286046995.1,N
1501097735.5,286046999.4,N
1501097755.3,286046998.0,N
1501097775.1,286046996.0,N
1501097795.9,286046994.8,N
1501097815.7,286046991.7,N
1501097835.5,286046994.7,N
1501097855.4,286046991.9,N
1501097875.2,286046993.1,N
1501097895.0,286046996.2,N
1501097895.9,286046996.2,N
1501097915.7,286046995.3,N
1501097935.6,286047002.3,N
1501097955.4,286047007.2,N
1501097975.2,286047006.8,N
1501097995.1,286047007.7,N
1501097996.0,286047007.7,N
1501098015.8,286047008.4,N
1501098035.6,286047003.7,N
1501098055.5,286047000.4,N
1501098075.3,286047008.3,N
1501098095.1,286047015.9,N
1501098115.9,286047017.5,N
1501098135.7,286047018.2,N
1501098155.5,286047021.0,N
1501098175.3,286047026.6,N
1501098195.2,286047027.5,N
1501098215.0,286047025.5,N
1501098215.9,286047025.5,N
1501098235.7,286047023.3,N
1501098255.6,286047016.2,N
1501098275.4,286047013.3,N
1501098295.2,286047016.9,N
1501098315.1,286047018.0,N
1501098316.0,286047018.0,N
1501098335.8,286047017.2,N
1501098355.6,286047015.2,N
1501098375.5,286047013.5,N
1501098395.3,286047013.2,N
1501098415.1,286047007.1,N
1501098435.8,286047007.5,N
1501098455.7,286047005.4,N
1501098475.5,286047010.3,N
1501098495.3,286047012.4,N
1501098515.2,286047013.5,N
1501098535.9,286047011.8,N
1501098555.7,286047008.4,N
1501098575.6,286047005.9,N
1501098595.4,286047007.6,N
1501098615.2,286047009.2,N
1501098635.1,286047001.9,N
1501098636.0,286047001.9,N
1501098655.8,286047007.0,N
1501098675.6,286047009.5,N
1501098695.4,286047008.3,N
1501098715.3,286047008.7,N
1501098735.1,286047010.4,N
1501098755.8,286047008.8,N
1501098775.7,286047005.0,N
1501098795.5,286047005.1,N
1501098815.3,286047003.7,N
1501098835.2,286047005.0,N
1501098855.9,286047004.5,N
1501098875.7,286047007.7,N
1501098895.6,286047009.4,N
1501098915.4,286047017.0,N
1501098935.2,286047012.5,N
1501098955.0,286047013.2,N
1501098955.9,286047013.2,N
1501098975.8,286047017.4,N
1501098995.6,286047027.7,N
1501099015.4,286047030.8,N
1501099035.3,286047030.9,N
1501099055.1,286047033.2,N
1501099075.8,286047036.0,N
1501099095.7,286047036.2,N
1501099115.5,286047030.5,N
1501099135.3,286047031.8,N
1501099155.2,286047035.6,N
1501099175.9,286047039.1,N
1501099195.7,286047039.0,N
